Location: Abundant Grace Fellowship
(35.0349°N, 90.0924°W)
Time: 08:22:54
(UTC+00:00)

SEDSat Delta rocket - Pass Details

Date: 18 January 2026
Orbit: 529 x 964 km, 31.4° (Epoch: 10 February)

Event Time Altitude Azimuth Distance (km) Brightness Sun altitude
Exits shadow 10:21:57 55° 133° (SE) 1,133 4.4 -33.5°
Drops below altitude 10° 10:27:13 10° 96° (E) 2,619 7.1 -32.4°
Sets 10:29:47 0° 93° (E) 3,518 8.1 -31.9°
